Time,TemperatureF,DewpointF,PressureIn,WindDirection,WindDirectionDegrees,WindSpeedMPH,WindSpeedGustMPH,Humidity,HourlyPrecipIn,Conditions,Clouds,dailyrainin,SoftwareType,DateUTC
2013-05-25 00:02:00,64.8,24.7,29.93,SSW,202,0.0,8.1,22,0.00,,,0.00,WUHU21623XXSP,2013-05-25 07:02:00,
2013-05-25 00:07:00,64.6,24.6,29.92,SSW,202,0.9,7.8,22,0.00,,,0.00,WUHU21623XXSP,2013-05-25 07:07:00,
2013-05-25 00:12:00,64.6,24.6,29.92,SSW,202,1.8,7.8,22,0.00,,,0.00,WUHU21623XXSP,2013-05-25 07:12:00,
2013-05-25 00:17:00,64.6,24.6,29.92,SSW,202,0.0,5.8,22,0.00,,,0.00,WUHU21623XXSP,2013-05-25 07:17:00,
2013-05-25 00:22:00,64.6,24.6,29.92,SSW,202,0.0,5.8,22,0.00,,,0.00,WUHU21623XXSP,2013-05-25 07:22:00,
2013-05-25 00:27:00,64.6,24.6,29.92,SSW,202,0.0,8.3,22,0.00,,,0.00,WUHU21623XXSP,2013-05-25 07:27:00,
2013-05-25 00:32:00,64.6,24.6,29.92,SSW,202,0.0,8.3,22,0.00,,,0.00,WUHU21623XXSP,2013-05-25 07:32:00,
2013-05-25 00:37:00,64.2,23.3,29.92,SSW,202,0.0,2.5,21,0.00,,,0.00,WUHU21623XXSP,2013-05-25 07:37:00,
2013-05-25 00:42:00,64.2,23.3,29.92,SSW,202,0.0,2.5,21,0.00,,,0.00,WUHU21623XXSP,2013-05-25 07:42:00,
2013-05-25 00:47:00,64.2,23.3,29.92,SSW,202,0.0,0.0,21,0.00,,,0.00,WUHU21623XXSP,2013-05-25 07:47:00,
2013-05-25 00:52:00,63.7,22.9,29.92,SSW,202,0.0,0.0,21,0.00,,,0.00,WUHU21623XXSP,2013-05-25 07:52:00,
2013-05-25 00:57:00,63.5,22.7,29.92,SSW,202,0.0,2.7,21,0.00,,,0.00,WUHU21623XXSP,2013-05-25 07:57:00,
2013-05-25 01:02:00,63.3,22.6,29.92,SSW,202,0.0,2.7,21,0.00,,,0.00,WUHU21623XXSP,2013-05-25 08:02:00,
2013-05-25 01:07:00,62.8,23.1,29.92,SSW,202,0.0,0.0,22,0.00,,,0.00,WUHU21623XXSP,2013-05-25 08:07:00,
2013-05-25 01:12:00,62.2,22.7,29.92,SSW,202,0.0,0.0,22,0.00,,,0.00,WUHU21623XXSP,2013-05-25 08:12:00,
2013-05-25 01:17:00,61.9,23.3,29.92,SSW,202,0.0,0.0,23,0.00,,,0.00,WUHU21623XXSP,2013-05-25 08:17:00,
2013-05-25 01:22:00,61.5,23.0,29.91,SSW,202,0.0,0.0,23,0.00,,,0.00,WUHU21623XXSP,2013-05-25 08:22:00,
2013-05-25 01:27:00,61.0,22.6,29.91,SSW,202,0.0,0.0,23,0.00,,,0.00,WUHU21623XXSP,2013-05-25 08:27:00,
2013-05-25 01:32:00,61.0,23.5,29.91,SSW,202,0.0,0.0,24,0.00,,,0.00,WUHU21623XXSP,2013-05-25 08:32:00,
2013-05-25 01:37:00,61.3,23.8,29.91,SSW,202,0.0,0.0,24,0.00,,,0.00,WUHU21623XXSP,2013-05-25 08:37:00,
2013-05-25 01:42:00,61.3,23.8,29.91,SSW,202,0.0,0.0,24,0.00,,,0.00,WUHU21623XXSP,2013-05-25 08:42:00,
2013-05-25 01:47:00,61.0,23.5,29.91,SSW,202,0.0,0.0,24,0.00,,,0.00,WUHU21623XXSP,2013-05-25 08:47:00,
2013-05-25 01:52:00,61.2,23.7,29.91,SSW,202,0.0,0.0,24,0.00,,,0.00,WUHU21623XXSP,2013-05-25 08:52:00,
2013-05-25 01:57:00,60.6,24.2,29.91,SSW,202,0.0,0.0,25,0.00,,,0.00,WUHU21623XXSP,2013-05-25 08:57:00,
2013-05-25 02:02:00,60.4,25.0,29.91,SSW,202,0.0,0.0,26,0.00,,,0.00,WUHU21623XXSP,2013-05-25 09:02:00,
2013-05-25 02:07:00,60.4,25.0,29.90,SSW,202,0.0,0.0,26,0.00,,,0.00,WUHU21623XXSP,2013-05-25 09:07:00,
2013-05-25 02:12:00,60.6,25.1,29.91,SSW,202,0.0,0.0,26,0.00,,,0.00,WUHU21623XXSP,2013-05-25 09:12:00,
2013-05-25 02:17:00,60.6,25.1,29.90,SSW,202,6.7,6.7,26,0.00,,,0.00,WUHU21623XXSP,2013-05-25 09:17:00,
2013-05-25 02:22:00,60.6,26.1,29.91,South,180,2.0,7.4,27,0.00,,,0.00,WUHU21623XXSP,2013-05-25 09:22:00,
2013-05-25 02:27:00,60.6,26.1,29.90,SSE,157,0.0,8.7,27,0.00,,,0.00,WUHU21623XXSP,2013-05-25 09:27:00,
2013-05-25 02:32:00,60.8,25.3,29.90,SSE,157,0.0,8.7,26,0.00,,,0.00,WUHU21623XXSP,2013-05-25 09:32:00,
2013-05-25 02:37:00,60.6,25.1,29.91,SSE,157,0.0,5.4,26,0.00,,,0.00,WUHU21623XXSP,2013-05-25 09:37:00,
2013-05-25 02:42:00,60.6,25.1,29.91,SSE,157,0.0,4.7,26,0.00,,,0.00,WUHU21623XXSP,2013-05-25 09:42:00,
2013-05-25 02:47:00,60.6,24.2,29.91,SSE,157,3.1,7.2,25,0.00,,,0.00,WUHU21623XXSP,2013-05-25 09:47:00,
2013-05-25 02:52:00,60.6,24.2,29.91,SSE,157,1.6,7.2,25,0.00,,,0.00,WUHU21623XXSP,2013-05-25 09:52:00,
2013-05-25 02:57:00,60.6,23.2,29.91,SSE,157,0.0,5.8,24,0.00,,,0.00,WUHU21623XXSP,2013-05-25 09:57:00,
2013-05-25 03:02:00,59.9,23.6,29.91,SSE,157,0.0,4.3,25,0.00,,,0.00,WUHU21623XXSP,2013-05-25 10:02:00,
2013-05-25 03:07:00,59.7,23.4,29.91,SSE,157,0.0,0.0,25,0.00,,,0.00,WUHU21623XXSP,2013-05-25 10:07:00,
2013-05-25 03:12:00,59.5,23.3,29.91,SSE,157,0.0,0.0,25,0.00,,,0.00,WUHU21623XXSP,2013-05-25 10:12:00,
2013-05-25 03:17:00,59.2,22.0,29.91,SSE,157,0.0,0.0,24,0.00,,,0.00,WUHU21623XXSP,2013-05-25 10:17:00,
2013-05-25 03:22:00,59.4,22.2,29.91,SSE,157,0.0,0.0,24,0.00,,,0.00,WUHU21623XXSP,2013-05-25 10:22:00,
2013-05-25 03:27:00,59.2,22.0,29.91,SSE,157,0.0,0.0,24,0.00,,,0.00,WUHU21623XXSP,2013-05-25 10:27:00,
2013-05-25 03:32:00,58.8,21.7,29.91,SSE,157,0.0,0.0,24,0.00,,,0.00,WUHU21623XXSP,2013-05-25 10:32:00,
2013-05-25 03:37:00,58.1,21.1,29.91,SSE,157,0.0,0.0,24,0.00,,,0.00,WUHU21623XXSP,2013-05-25 10:37:00,
2013-05-25 03:42:00,58.3,21.2,29.91,SSE,157,0.0,0.0,24,0.00,,,0.00,WUHU21623XXSP,2013-05-25 10:42:00,
2013-05-25 03:47:00,58.3,20.3,29.91,SSE,157,0.0,0.0,23,0.00,,,0.00,WUHU21623XXSP,2013-05-25 10:47:00,
2013-05-25 03:52:00,58.8,18.8,29.92,SSE,157,2.7,2.7,21,0.00,,,0.00,WUHU21623XXSP,2013-05-25 10:52:00,
2013-05-25 03:57:00,58.8,18.8,29.92,SSE,157,0.0,2.7,21,0.00,,,0.00,WUHU21623XXSP,2013-05-25 10:57:00,
2013-05-25 04:02:00,58.8,18.8,29.92,SSE,157,0.0,1.1,21,0.00,,,0.00,WUHU21623XXSP,2013-05-25 11:02:00,
2013-05-25 04:07:00,59.2,19.1,29.92,SSE,157,0.0,0.0,21,0.00,,,0.00,WUHU21623XXSP,2013-05-25 11:07:00,
2013-05-25 04:12:00,59.2,19.1,29.91,SSE,157,0.0,0.0,21,0.00,,,0.00,WUHU21623XXSP,2013-05-25 11:12:00,
2013-05-25 04:17:00,59.0,19.1,29.91,SSE,157,0.0,0.0,21,0.00,,,0.00,WUHU21623XXSP,2013-05-25 11:17:00,
2013-05-25 04:22:00,58.8,18.8,29.91,SSE,157,0.0,0.0,21,0.00,,,0.00,WUHU21623XXSP,2013-05-25 11:22:00,
2013-05-25 04:27:00,58.8,19.7,29.91,SSE,157,0.0,0.0,22,0.00,,,0.00,WUHU21623XXSP,2013-05-25 11:27:00,
2013-05-25 04:32:00,58.8,19.7,29.91,SSE,157,0.0,0.0,22,0.00,,,0.00,WUHU21623XXSP,2013-05-25 11:32:00,
2013-05-25 04:37:00,58.6,19.6,29.91,SSE,157,0.0,0.0,22,0.00,,,0.00,WUHU21623XXSP,2013-05-25 11:37:00,
2013-05-25 04:42:00,57.6,18.7,29.91,SSE,157,0.0,0.0,22,0.00,,,0.00,WUHU21623XXSP,2013-05-25 11:42:00,
2013-05-25 04:47:00,56.8,20.0,29.91,SSE,157,0.0,0.0,24,0.00,,,0.00,WUHU21623XXSP,2013-05-25 11:47:00,
2013-05-25 04:52:00,57.4,20.5,29.92,SSE,157,0.0,0.0,24,0.00,,,0.00,WUHU21623XXSP,2013-05-25 11:52:00,
2013-05-25 04:57:00,57.0,18.3,29.92,SSE,157,0.0,0.0,22,0.00,,,0.00,WUHU21623XXSP,2013-05-25 11:57:00,
2013-05-25 05:02:00,56.3,18.6,29.92,SSE,157,0.0,0.0,23,0.00,,,0.00,WUHU21623XXSP,2013-05-25 12:02:00,
2013-05-25 05:07:00,56.1,18.5,29.92,SSE,157,0.0,0.0,23,0.00,,,0.00,WUHU21623XXSP,2013-05-25 12:07:00,
2013-05-25 05:12:00,56.5,18.8,29.92,SSE,157,0.0,0.0,23,0.00,,,0.00,WUHU21623XXSP,2013-05-25 12:12:00,
2013-05-25 05:17:00,55.6,19.0,29.92,SSE,157,0.0,0.0,24,0.00,,,0.00,WUHU21623XXSP,2013-05-25 12:17:00,
2013-05-25 05:22:00,55.9,19.3,29.92,SSE,157,0.0,0.0,24,0.00,,,0.00,WUHU21623XXSP,2013-05-25 12:22:00,
2013-05-25 05:27:00,55.8,20.1,29.93,SSE,157,0.0,0.0,25,0.00,,,0.00,WUHU21623XXSP,2013-05-25 12:27:00,
2013-05-25 05:32:00,55.6,19.9,29.93,SSE,157,0.0,0.0,25,0.00,,,0.00,WUHU21623XXSP,2013-05-25 12:32:00,
2013-05-25 05:37:00,55.4,19.8,29.93,SSE,157,0.0,0.0,25,0.00,,,0.00,WUHU21623XXSP,2013-05-25 12:37:00,
2013-05-25 05:42:00,55.0,19.5,29.93,SSE,157,0.0,0.0,25,0.00,,,0.00,WUHU21623XXSP,2013-05-25 12:42:00,
2013-05-25 05:47:00,55.6,19.9,29.93,SSE,157,0.0,0.0,25,0.00,,,0.00,WUHU21623XXSP,2013-05-25 12:47:00,
2013-05-25 05:52:00,55.4,19.8,29.93,SSE,157,0.0,0.0,25,0.00,,,0.00,WUHU21623XXSP,2013-05-25 12:52:00,
2013-05-25 05:57:00,55.9,20.2,29.93,SSE,157,0.0,0.0,25,0.00,,,0.00,WUHU21623XXSP,2013-05-25 12:57:00,
2013-05-25 06:02:00,56.1,20.4,29.93,SSE,157,0.0,0.0,25,0.00,,,0.00,WUHU21623XXSP,2013-05-25 13:02:00,
2013-05-25 06:07:00,55.9,21.1,29.93,SSE,157,0.0,0.0,26,0.00,,,0.00,WUHU21623XXSP,2013-05-25 13:07:00,
2013-05-25 06:12:00,55.9,21.1,29.93,SSE,157,0.0,0.0,26,0.00,,,0.00,WUHU21623XXSP,2013-05-25 13:12:00,
2013-05-25 06:17:00,56.5,21.6,29.93,SSE,157,0.0,0.0,26,0.00,,,0.00,WUHU21623XXSP,2013-05-25 13:17:00,
2013-05-25 06:22:00,57.0,22.1,29.93,SSE,157,0.0,0.0,26,0.00,,,0.00,WUHU21623XXSP,2013-05-25 13:22:00,
2013-05-25 06:27:00,57.6,22.5,29.93,SSE,157,0.0,0.0,26,0.00,,,0.00,WUHU21623XXSP,2013-05-25 13:27:00,
2013-05-25 06:32:00,57.9,22.9,29.93,SSE,157,0.0,0.0,26,0.00,,,0.00,WUHU21623XXSP,2013-05-25 13:32:00,
2013-05-25 06:37:00,58.6,22.5,29.93,SSE,157,0.0,0.0,25,0.00,,,0.00,WUHU21623XXSP,2013-05-25 13:37:00,
2013-05-25 06:42:00,58.8,22.7,29.93,SSE,157,0.0,0.0,25,0.00,,,0.00,WUHU21623XXSP,2013-05-25 13:42:00,
2013-05-25 06:47:00,60.1,23.7,29.94,SSE,157,0.0,0.0,25,0.00,,,0.00,WUHU21623XXSP,2013-05-25 13:47:00,
2013-05-25 06:52:00,60.6,24.2,29.94,SSE,157,0.0,0.0,25,0.00,,,0.00,WUHU21623XXSP,2013-05-25 13:52:00,
2013-05-25 06:57:00,61.0,24.5,29.94,SSE,157,0.0,0.0,25,0.00,,,0.00,WUHU21623XXSP,2013-05-25 13:57:00,
2013-05-25 07:02:00,61.5,25.0,29.94,SSE,157,0.0,0.0,25,0.00,,,0.00,WUHU21623XXSP,2013-05-25 14:02:00,
2013-05-25 07:07:00,61.7,25.1,29.94,SSE,157,0.0,0.0,25,0.00,,,0.00,WUHU21623XXSP,2013-05-25 14:07:00,
2013-05-25 07:12:00,61.9,25.3,29.95,SSE,157,0.0,0.0,25,0.00,,,0.00,WUHU21623XXSP,2013-05-25 14:12:00,
2013-05-25 07:17:00,62.1,25.4,29.95,SSE,157,0.0,0.0,25,0.00,,,0.00,WUHU21623XXSP,2013-05-25 14:17:00,
2013-05-25 07:22:00,62.2,25.6,29.95,SSE,157,0.0,0.0,25,0.00,,,0.00,WUHU21623XXSP,2013-05-25 14:22:00,
2013-05-25 07:27:00,62.4,25.7,29.95,SSE,157,0.0,0.0,25,0.00,,,0.00,WUHU21623XXSP,2013-05-25 14:27:00,
2013-05-25 07:32:00,62.4,25.7,29.95,SSE,157,0.0,2.2,25,0.00,,,0.00,WUHU21623XXSP,2013-05-25 14:32:00,
2013-05-25 07:37:00,62.4,25.7,29.95,SSE,157,1.8,4.3,25,0.00,,,0.00,WUHU21623XXSP,2013-05-25 14:37:00,
2013-05-25 07:42:00,62.6,25.9,29.96,SSE,157,0.0,4.3,25,0.00,,,0.00,WUHU21623XXSP,2013-05-25 14:42:00,
2013-05-25 07:47:00,62.4,25.7,29.96,SSE,157,0.0,0.0,25,0.00,,,0.00,WUHU21623XXSP,2013-05-25 14:47:00,
2013-05-25 07:52:00,63.0,26.2,29.96,SSE,157,0.0,0.0,25,0.00,,,0.00,WUHU21623XXSP,2013-05-25 14:52:00,
2013-05-25 07:57:00,63.3,25.5,29.96,SSE,157,0.0,4.3,24,0.00,,,0.00,WUHU21623XXSP,2013-05-25 14:57:00,
2013-05-25 08:02:00,63.7,25.8,29.96,SSE,157,0.0,4.3,24,0.00,,,0.00,WUHU21623XXSP,2013-05-25 15:02:00,
2013-05-25 08:07:00,64.2,26.3,29.96,SSE,157,0.0,0.0,24,0.00,,,0.00,WUHU21623XXSP,2013-05-25 15:07:00,
2013-05-25 08:12:00,64.2,26.3,29.96,SSE,157,0.0,0.0,24,0.00,,,0.00,WUHU21623XXSP,2013-05-25 15:12:00,
2013-05-25 08:17:00,64.8,26.7,29.96,SSE,157,0.0,0.0,24,0.00,,,0.00,WUHU21623XXSP,2013-05-25 15:17:00,
2013-05-25 08:22:00,65.3,26.2,29.96,SSE,157,0.0,0.0,23,0.00,,,0.00,WUHU21623XXSP,2013-05-25 15:22:00,
2013-05-25 08:27:00,65.5,26.3,29.96,SSE,157,0.0,0.0,23,0.00,,,0.00,WUHU21623XXSP,2013-05-25 15:27:00,
2013-05-25 08:32:00,65.8,27.6,29.96,NNE,22,0.0,5.6,24,0.00,,,0.00,WUHU21623XXSP,2013-05-25 15:32:00,
2013-05-25 08:37:00,65.8,27.6,29.96,NNE,22,0.0,5.6,24,0.00,,,0.00,WUHU21623XXSP,2013-05-25 15:37:00,
2013-05-25 08:42:00,66.4,28.1,29.96,NNE,22,2.0,3.8,24,0.00,,,0.00,WUHU21623XXSP,2013-05-25 15:42:00,
2013-05-25 08:47:00,66.9,27.5,29.96,NNE,22,0.0,2.0,23,0.00,,,0.00,WUHU21623XXSP,2013-05-25 15:47:00,
2013-05-25 08:52:00,67.5,28.0,29.97,NNE,22,0.0,1.1,23,0.00,,,0.00,WUHU21623XXSP,2013-05-25 15:52:00,
2013-05-25 08:57:00,67.8,28.3,29.96,NNE,22,0.0,0.0,23,0.00,,,0.00,WUHU21623XXSP,2013-05-25 15:57:00,
2013-05-25 09:02:00,68.2,28.6,29.96,NNE,22,0.0,6.0,23,0.00,,,0.00,WUHU21623XXSP,2013-05-25 16:02:00,
2013-05-25 09:07:00,68.4,28.8,29.96,NNE,22,0.0,6.0,23,0.00,,,0.00,WUHU21623XXSP,2013-05-25 16:07:00,
2013-05-25 09:12:00,68.7,29.1,29.97,NNE,22,0.0,7.4,23,0.00,,,0.00,WUHU21623XXSP,2013-05-25 16:12:00,
2013-05-25 09:17:00,68.7,29.1,29.97,ENE,67,0.0,7.4,23,0.00,,,0.00,WUHU21623XXSP,2013-05-25 16:17:00,
2013-05-25 09:22:00,68.4,28.8,29.97,NNE,22,0.0,8.9,23,0.00,,,0.00,WUHU21623XXSP,2013-05-25 16:22:00,
2013-05-25 09:27:00,68.7,28.1,29.97,ENE,67,0.0,8.9,22,0.00,,,0.00,WUHU21623XXSP,2013-05-25 16:27:00,
2013-05-25 09:32:00,69.4,28.7,29.97,NE,45,0.0,6.0,22,0.00,,,0.00,WUHU21623XXSP,2013-05-25 16:32:00,
2013-05-25 09:37:00,69.4,28.8,29.97,NE,45,0.0,6.7,22,0.00,,,0.00,WUHU21623XXSP,2013-05-25 16:37:00,
2013-05-25 09:42:00,70.0,29.1,29.97,NE,45,0.0,6.7,22,0.00,,,0.00,WUHU21623XXSP,2013-05-25 16:42:00,
2013-05-25 09:47:00,69.8,29.0,29.97,NNE,22,6.7,6.7,22,0.00,,,0.00,WUHU21623XXSP,2013-05-25 16:47:00,
2013-05-25 09:52:00,70.3,28.4,29.97,ENE,67,0.0,6.7,21,0.00,,,0.00,WUHU21623XXSP,2013-05-25 16:52:00,
2013-05-25 09:57:00,71.2,29.1,29.97,NE,45,2.0,4.0,21,0.00,,,0.00,WUHU21623XXSP,2013-05-25 16:57:00,
2013-05-25 10:02:00,71.2,29.1,29.97,NE,45,0.0,2.5,21,0.00,,,0.00,WUHU21623XXSP,2013-05-25 17:02:00,
2013-05-25 10:07:00,72.3,27.4,29.97,NE,45,0.0,0.0,19,0.00,,,0.00,WUHU21623XXSP,2013-05-25 17:07:00,
2013-05-25 10:12:00,73.0,23.1,29.97,NNE,22,0.0,3.6,16,0.00,,,0.00,WUHU21623XXSP,2013-05-25 17:12:00,
2013-05-25 10:17:00,74.7,22.8,29.98,SW,225,3.6,7.4,15,0.00,,,0.00,WUHU21623XXSP,2013-05-25 17:17:00,
2013-05-25 10:22:00,75.0,18.1,29.97,SSW,202,8.7,10.7,12,0.00,,,0.00,WUHU21623XXSP,2013-05-25 17:22:00,
2013-05-25 10:27:00,75.0,21.4,29.97,SW,225,7.6,13.6,14,0.00,,,0.00,WUHU21623XXSP,2013-05-25 17:27:00,
2013-05-25 10:32:00,75.6,21.8,29.97,WSW,247,5.1,17.4,14,0.00,,,0.00,WUHU21623XXSP,2013-05-25 17:32:00,
2013-05-25 10:37:00,75.7,22.0,29.97,SSW,202,0.0,17.4,14,0.00,,,0.00,WUHU21623XXSP,2013-05-25 17:37:00,
2013-05-25 10:42:00,76.3,22.4,29.97,SW,225,3.8,13.2,14,0.00,,,0.00,WUHU21623XXSP,2013-05-25 17:42:00,
2013-05-25 10:47:00,76.6,22.7,29.97,WSW,247,9.4,17.9,14,0.00,,,0.00,WUHU21623XXSP,2013-05-25 17:47:00,
2013-05-25 10:52:00,76.8,22.8,29.97,SSW,202,11.9,17.9,14,0.00,,,0.00,WUHU21623XXSP,2013-05-25 17:52:00,
2013-05-25 10:57:00,76.8,22.8,29.97,SSW,202,4.7,14.3,14,0.00,,,0.00,WUHU21623XXSP,2013-05-25 17:57:00,
2013-05-25 11:02:00,76.8,22.8,29.97,SSW,202,2.0,14.3,14,0.00,,,0.00,WUHU21623XXSP,2013-05-25 18:02:00,
2013-05-25 11:07:00,77.2,23.1,29.97,SW,225,4.9,14.1,14,0.00,,,0.00,WUHU21623XXSP,2013-05-25 18:07:00,
2013-05-25 11:12:00,77.9,23.6,29.97,WSW,247,11.2,14.1,14,0.00,,,0.00,WUHU21623XXSP,2013-05-25 18:12:00,
2013-05-25 11:17:00,77.7,21.8,29.98,SSW,202,7.2,15.4,13,0.00,,,0.00,WUHU21623XXSP,2013-05-25 18:17:00,
2013-05-25 11:22:00,76.8,19.5,29.98,SSE,157,10.1,17.9,12,0.00,,,0.00,WUHU21623XXSP,2013-05-25 18:22:00,
2013-05-25 11:27:00,76.5,19.2,29.98,SSE,157,14.1,17.9,12,0.00,,,0.00,WUHU21623XXSP,2013-05-25 18:27:00,
2013-05-25 11:32:00,75.9,20.4,29.98,SSW,202,2.7,16.1,13,0.00,,,0.00,WUHU21623XXSP,2013-05-25 18:32:00,
2013-05-25 11:37:00,76.5,22.5,29.97,SSE,157,6.9,16.1,14,0.00,,,0.00,WUHU21623XXSP,2013-05-25 18:37:00,
2013-05-25 11:42:00,76.3,22.4,29.98,SSE,157,8.3,17.9,14,0.00,,,0.00,WUHU21623XXSP,2013-05-25 18:42:00,
2013-05-25 11:47:00,76.3,22.4,29.98,SSE,157,8.3,17.9,14,0.00,,,0.00,WUHU21623XXSP,2013-05-25 18:47:00,
2013-05-25 11:52:00,76.6,22.7,29.98,SW,225,8.1,14.5,14,0.00,,,0.00,WUHU21623XXSP,2013-05-25 18:52:00,
2013-05-25 11:57:00,77.5,23.4,29.98,SW,225,11.2,16.1,14,0.00,,,0.00,WUHU21623XXSP,2013-05-25 18:57:00,
2013-05-25 12:02:00,77.7,20.2,29.98,South,180,5.8,19.0,12,0.00,,,0.00,WUHU21623XXSP,2013-05-25 19:02:00,
2013-05-25 12:07:00,76.8,21.2,29.98,SSW,202,9.2,19.0,13,0.00,,,0.00,WUHU21623XXSP,2013-05-25 19:07:00,
2013-05-25 12:12:00,76.8,22.8,29.98,South,180,7.6,17.4,14,0.00,,,0.00,WUHU21623XXSP,2013-05-25 19:12:00,
2013-05-25 12:17:00,77.0,23.0,29.98,South,180,4.9,17.4,14,0.00,,,0.00,WUHU21623XXSP,2013-05-25 19:17:00,
2013-05-25 12:22:00,77.5,23.4,29.98,SSE,157,11.6,16.8,14,0.00,,,0.00,WUHU21623XXSP,2013-05-25 19:22:00,
2013-05-25 12:27:00,76.8,22.8,29.98,South,180,3.1,17.7,14,0.00,,,0.00,WUHU21623XXSP,2013-05-25 19:27:00,
2013-05-25 12:32:00,77.5,21.7,29.97,SSW,202,8.7,17.7,13,0.00,,,0.00,WUHU21623XXSP,2013-05-25 19:32:00,
2013-05-25 12:37:00,77.9,22.0,29.98,SSW,202,10.5,13.6,13,0.00,,,0.00,WUHU21623XXSP,2013-05-25 19:37:00,
2013-05-25 12:42:00,77.9,23.6,29.98,SW,225,6.3,18.3,14,0.00,,,0.00,WUHU21623XXSP,2013-05-25 19:42:00,
2013-05-25 12:47:00,78.4,22.4,29.98,SSW,202,3.8,18.3,13,0.00,,,0.00,WUHU21623XXSP,2013-05-25 19:47:00,
2013-05-25 12:52:00,78.1,18.8,29.97,South,180,9.4,21.5,11,0.00,,,0.00,WUHU21623XXSP,2013-05-25 19:52:00,
2013-05-25 12:57:00,77.9,20.3,29.98,SW,225,5.6,21.5,12,0.00,,,0.00,WUHU21623XXSP,2013-05-25 19:57:00,
2013-05-25 13:02:00,77.2,19.8,29.97,SW,225,13.0,20.1,12,0.00,,,0.00,WUHU21623XXSP,2013-05-25 20:02:00,
2013-05-25 13:07:00,77.2,19.8,29.98,SSW,202,8.1,20.1,12,0.00,,,0.00,WUHU21623XXSP,2013-05-25 20:07:00,
2013-05-25 13:12:00,77.2,21.4,29.97,SW,225,6.3,17.7,13,0.00,,,0.00,WUHU21623XXSP,2013-05-25 20:12:00,
2013-05-25 13:17:00,77.7,23.5,29.97,SSE,157,8.1,16.8,14,0.00,,,0.00,WUHU21623XXSP,2013-05-25 20:17:00,
2013-05-25 13:22:00,77.7,23.5,29.97,South,180,10.5,17.7,14,0.00,,,0.00,WUHU21623XXSP,2013-05-25 20:22:00,
2013-05-25 13:27:00,77.2,24.7,29.97,SSE,157,17.2,17.7,15,0.00,,,0.00,WUHU21623XXSP,2013-05-25 20:27:00,
2013-05-25 13:32:00,76.8,24.5,29.97,WSW,247,8.7,20.4,15,0.00,,,0.00,WUHU21623XXSP,2013-05-25 20:32:00,
2013-05-25 13:37:00,77.5,25.0,29.97,WSW,247,9.6,20.4,15,0.00,,,0.00,WUHU21623XXSP,2013-05-25 20:37:00,
2013-05-25 13:42:00,78.1,25.4,29.97,WSW,247,9.4,16.1,15,0.00,,,0.00,WUHU21623XXSP,2013-05-25 20:42:00,
2013-05-25 13:47:00,78.6,25.8,29.96,WSW,247,13.0,21.0,15,0.00,,,0.00,WUHU21623XXSP,2013-05-25 20:47:00,
2013-05-25 13:52:00,78.6,24.2,29.96,WSW,247,13.0,21.7,14,0.00,,,0.00,WUHU21623XXSP,2013-05-25 20:52:00,
2013-05-25 13:57:00,78.4,25.7,29.96,WSW,247,6.5,21.7,15,0.00,,,0.00,WUHU21623XXSP,2013-05-25 20:57:00,
2013-05-25 14:02:00,78.6,24.2,29.96,WSW,247,8.1,19.5,14,0.00,,,0.00,WUHU21623XXSP,2013-05-25 21:02:00,
2013-05-25 14:07:00,78.6,25.8,29.96,WSW,247,16.3,19.2,15,0.00,,,0.00,WUHU21623XXSP,2013-05-25 21:07:00,
2013-05-25 14:12:00,78.4,25.7,29.96,WSW,247,13.4,19.2,15,0.00,,,0.00,WUHU21623XXSP,2013-05-25 21:12:00,
2013-05-25 14:17:00,78.1,25.4,29.96,WSW,247,13.2,22.4,15,0.00,,,0.00,WUHU21623XXSP,2013-05-25 21:17:00,
2013-05-25 14:22:00,78.1,25.4,29.96,WSW,247,13.6,22.4,15,0.00,,,0.00,WUHU21623XXSP,2013-05-25 21:22:00,
2013-05-25 14:27:00,77.5,23.4,29.96,WSW,247,8.3,21.3,14,0.00,,,0.00,WUHU21623XXSP,2013-05-25 21:27:00,
2013-05-25 14:32:00,77.5,23.4,29.96,WSW,247,16.6,23.7,14,0.00,,,0.00,WUHU21623XXSP,2013-05-25 21:32:00,
2013-05-25 14:37:00,77.7,23.5,29.96,WSW,247,10.7,23.7,14,0.00,,,0.00,WUHU21623XXSP,2013-05-25 21:37:00,
2013-05-25 14:42:00,78.1,20.4,29.96,WSW,247,13.9,23.7,12,0.00,,,0.00,WUHU21623XXSP,2013-05-25 21:42:00,
2013-05-25 14:47:00,78.6,24.2,29.95,WSW,247,16.8,23.7,13,0.00,,,0.00,WUHU21623XXSP,2013-05-25 21:47:00,
2013-05-25 14:52:00,78.4,24.0,29.95,WSW,247,11.4,24.4,14,0.00,,,0.00,WUHU21623XXSP,2013-05-25 21:52:00,
2013-05-25 14:57:00,78.4,24.0,29.95,WSW,247,15.0,24.4,14,0.00,,,0.00,WUHU21623XXSP,2013-05-25 21:57:00,
2013-05-25 15:02:00,78.4,24.0,29.96,WSW,247,14.5,23.0,14,0.00,,,0.00,WUHU21623XXSP,2013-05-25 22:02:00,
2013-05-25 15:07:00,78.1,23.8,29.95,WSW,247,10.7,23.0,14,0.00,,,0.00,WUHU21623XXSP,2013-05-25 22:07:00,
2013-05-25 15:12:00,78.6,20.8,29.95,WSW,247,11.0,19.0,12,0.00,,,0.00,WUHU21623XXSP,2013-05-25 22:12:00,
2013-05-25 15:17:00,78.6,19.1,29.95,WSW,247,14.8,24.4,11,0.00,,,0.00,WUHU21623XXSP,2013-05-25 22:17:00,
2013-05-25 15:22:00,78.6,19.1,29.96,WSW,247,12.3,27.1,11,0.00,,,0.00,WUHU21623XXSP,2013-05-25 22:22:00,
2013-05-25 15:27:00,78.6,19.1,29.95,WSW,247,15.4,27.1,11,0.00,,,0.00,WUHU21623XXSP,2013-05-25 22:27:00,
2013-05-25 15:32:00,78.6,19.1,29.95,WSW,247,9.8,23.0,11,0.00,,,0.00,WUHU21623XXSP,2013-05-25 22:32:00,
2013-05-25 15:37:00,78.6,19.1,29.95,WSW,247,8.7,27.1,11,0.00,,,0.00,WUHU21623XXSP,2013-05-25 22:37:00,
2013-05-25 15:42:00,78.4,19.0,29.95,WSW,247,9.2,27.1,11,0.00,,,0.00,WUHU21623XXSP,2013-05-25 22:42:00,
2013-05-25 15:47:00,77.9,18.6,29.95,WSW,247,23.0,27.5,11,0.00,,,0.00,WUHU21623XXSP,2013-05-25 22:47:00,
2013-05-25 15:52:00,78.1,18.8,29.94,WSW,247,13.0,27.5,11,0.00,,,0.00,WUHU21623XXSP,2013-05-25 22:52:00,
2013-05-25 15:57:00,77.7,20.2,29.94,WSW,247,8.7,32.7,12,0.00,,,0.00,WUHU21623XXSP,2013-05-25 22:57:00,
2013-05-25 16:02:00,77.7,20.2,29.94,WSW,247,15.9,32.7,12,0.00,,,0.00,WUHU21623XXSP,2013-05-25 23:02:00,
2013-05-25 16:07:00,77.5,23.4,29.94,WSW,247,13.0,23.7,14,0.00,,,0.00,WUHU21623XXSP,2013-05-25 23:07:00,
2013-05-25 16:12:00,77.9,23.6,29.94,WSW,247,13.6,23.0,14,0.00,,,0.00,WUHU21623XXSP,2013-05-25 23:12:00,
2013-05-25 16:17:00,78.1,23.8,29.94,WSW,247,12.5,20.8,14,0.00,,,0.00,WUHU21623XXSP,2013-05-25 23:17:00,
2013-05-25 16:22:00,77.9,23.6,29.94,WSW,247,7.2,18.1,14,0.00,,,0.00,WUHU21623XXSP,2013-05-25 23:22:00,
2013-05-25 16:27:00,77.7,23.5,29.94,WSW,247,6.0,20.6,14,0.00,,,0.00,WUHU21623XXSP,2013-05-25 23:27:00,
2013-05-25 16:32:00,78.1,23.8,29.93,WSW,247,10.7,20.6,14,0.00,,,0.00,WUHU21623XXSP,2013-05-25 23:32:00,
2013-05-25 16:37:00,77.7,23.5,29.94,WSW,247,5.1,19.7,14,0.00,,,0.00,WUHU21623XXSP,2013-05-25 23:37:00,
2013-05-25 16:42:00,77.7,23.5,29.94,WSW,247,10.5,24.4,14,0.00,,,0.00,WUHU21623XXSP,2013-05-25 23:42:00,
2013-05-25 16:47:00,77.4,24.9,29.93,WSW,247,8.1,24.4,15,0.00,,,0.00,WUHU21623XXSP,2013-05-25 23:47:00,
2013-05-25 16:52:00,77.4,28.2,29.94,WSW,247,12.8,22.1,17,0.00,,,0.00,WUHU21623XXSP,2013-05-25 23:52:00,
2013-05-25 16:57:00,77.2,29.7,29.94,WSW,247,8.3,20.6,18,0.00,,,0.00,WUHU21623XXSP,2013-05-25 23:57:00,
2013-05-25 17:02:00,77.0,29.6,29.93,WSW,247,13.6,20.1,18,0.00,,,0.00,WUHU21623XXSP,2013-05-26 00:02:00,
2013-05-25 17:07:00,77.0,29.6,29.94,WSW,247,16.1,25.7,18,0.00,,,0.00,WUHU21623XXSP,2013-05-26 00:07:00,
2013-05-25 17:12:00,77.0,29.6,29.93,WSW,247,8.9,25.7,18,0.00,,,0.00,WUHU21623XXSP,2013-05-26 00:12:00,
2013-05-25 17:17:00,76.6,29.3,29.93,WSW,247,11.0,18.8,18,0.00,,,0.00,WUHU21623XXSP,2013-05-26 00:17:00,
2013-05-25 17:22:00,76.3,29.0,29.93,WSW,247,10.3,18.6,18,0.00,,,0.00,WUHU21623XXSP,2013-05-26 00:22:00,
2013-05-25 17:27:00,76.3,29.0,29.93,WSW,247,2.9,18.6,18,0.00,,,0.00,WUHU21623XXSP,2013-05-26 00:27:00,
2013-05-25 17:32:00,76.3,29.0,29.93,WSW,247,3.8,18.1,18,0.00,,,0.00,WUHU21623XXSP,2013-05-26 00:32:00,
2013-05-25 17:37:00,76.3,32.3,29.93,WSW,247,2.9,19.5,20,0.00,,,0.00,WUHU21623XXSP,2013-05-26 00:37:00,
2013-05-25 17:42:00,76.1,33.2,29.94,WSW,247,7.8,19.5,21,0.00,,,0.00,WUHU21623XXSP,2013-05-26 00:42:00,
2013-05-25 17:47:00,75.9,34.1,29.93,WSW,247,0.0,17.9,22,0.00,,,0.00,WUHU21623XXSP,2013-05-26 00:47:00,
2013-05-25 17:52:00,75.7,33.9,29.93,WSW,247,7.6,17.9,22,0.00,,,0.00,WUHU21623XXSP,2013-05-26 00:52:00,
2013-05-25 17:57:00,75.0,34.4,29.93,WSW,247,7.6,16.8,23,0.00,,,0.00,WUHU21623XXSP,2013-05-26 00:57:00,
2013-05-25 18:02:00,75.0,34.4,29.93,WSW,247,11.4,16.8,23,0.00,,,0.00,WUHU21623XXSP,2013-05-26 01:02:00,
2013-05-25 18:07:00,74.8,35.3,29.93,WSW,247,6.7,14.5,24,0.00,,,0.00,WUHU21623XXSP,2013-05-26 01:07:00,
2013-05-25 18:12:00,74.5,35.0,29.93,WSW,247,8.9,14.5,24,0.00,,,0.00,WUHU21623XXSP,2013-05-26 01:12:00,
2013-05-25 18:17:00,74.1,35.7,29.93,WSW,247,11.2,15.2,25,0.00,,,0.00,WUHU21623XXSP,2013-05-26 01:17:00,
2013-05-25 18:22:00,73.9,35.5,29.93,WSW,247,5.6,15.2,25,0.00,,,0.00,WUHU21623XXSP,2013-05-26 01:22:00,
2013-05-25 18:27:00,73.9,36.5,29.93,WSW,247,4.7,14.8,26,0.00,,,0.00,WUHU21623XXSP,2013-05-26 01:27:00,
2013-05-25 18:32:00,73.6,36.2,29.93,WSW,247,10.7,14.8,26,0.00,,,0.00,WUHU21623XXSP,2013-05-26 01:32:00,
2013-05-25 18:37:00,73.2,35.9,29.93,WSW,247,8.9,15.0,26,0.00,,,0.00,WUHU21623XXSP,2013-05-26 01:37:00,
2013-05-25 18:42:00,73.0,35.8,29.92,WSW,247,6.9,15.0,26,0.00,,,0.00,WUHU21623XXSP,2013-05-26 01:42:00,
2013-05-25 18:47:00,72.7,37.5,29.93,WSW,247,5.1,14.8,28,0.00,,,0.00,WUHU21623XXSP,2013-05-26 01:47:00,
2013-05-25 18:52:00,72.3,38.2,29.93,WSW,247,7.4,13.2,29,0.00,,,0.00,WUHU21623XXSP,2013-05-26 01:52:00,
2013-05-25 18:57:00,72.1,38.1,29.93,WSW,247,4.9,11.0,29,0.00,,,0.00,WUHU21623XXSP,2013-05-26 01:57:00,
2013-05-25 19:02:00,72.0,37.9,29.93,WSW,247,9.8,9.8,29,0.00,,,0.00,WUHU21623XXSP,2013-05-26 02:02:00,
2013-05-25 19:07:00,71.4,38.5,29.93,WSW,247,0.0,12.3,30,0.00,,,0.00,WUHU21623XXSP,2013-05-26 02:07:00,
2013-05-25 19:12:00,71.4,38.5,29.93,WSW,247,0.9,12.3,30,0.00,,,0.00,WUHU21623XXSP,2013-05-26 02:12:00,
2013-05-25 19:17:00,71.4,37.5,29.93,WSW,247,3.1,11.6,29,0.00,,,0.00,WUHU21623XXSP,2013-05-26 02:17:00,
2013-05-25 19:22:00,71.2,37.3,29.93,SW,225,2.5,11.9,29,0.00,,,0.00,WUHU21623XXSP,2013-05-26 02:22:00,
2013-05-25 19:27:00,70.7,37.9,29.93,SSW,202,2.9,11.9,30,0.00,,,0.00,WUHU21623XXSP,2013-05-26 02:27:00,
2013-05-25 19:32:00,70.3,37.5,29.93,SSW,202,0.0,7.6,30,0.00,,,0.00,WUHU21623XXSP,2013-05-26 02:32:00,
2013-05-25 19:37:00,70.0,37.2,29.93,SSW,202,3.1,9.6,30,0.00,,,0.00,WUHU21623XXSP,2013-05-26 02:37:00,
2013-05-25 19:42:00,69.6,36.9,29.93,SSW,202,3.1,9.6,30,0.00,,,0.00,WUHU21623XXSP,2013-05-26 02:42:00,
2013-05-25 19:47:00,69.6,36.9,29.93,SSW,202,3.6,7.6,30,0.00,,,0.00,WUHU21623XXSP,2013-05-26 02:47:00,
2013-05-25 19:52:00,69.1,37.1,29.93,SSW,202,2.2,13.0,31,0.00,,,0.00,WUHU21623XXSP,2013-05-26 02:52:00,
2013-05-25 19:57:00,68.7,36.8,29.93,SW,225,0.2,15.4,31,0.00,,,0.00,WUHU21623XXSP,2013-05-26 02:57:00,
2013-05-25 20:02:00,68.7,36.8,29.93,SSW,202,4.0,15.4,31,0.00,,,0.00,WUHU21623XXSP,2013-05-26 03:02:00,
2013-05-25 20:07:00,68.4,37.2,29.93,SSW,202,7.8,15.2,32,0.00,,,0.00,WUHU21623XXSP,2013-05-26 03:07:00,
2013-05-25 20:12:00,68.2,37.1,29.93,SSW,202,8.9,16.1,32,0.00,,,0.00,WUHU21623XXSP,2013-05-26 03:12:00,
2013-05-25 20:17:00,68.2,37.1,29.93,SSW,202,3.6,16.1,32,0.00,,,0.00,WUHU21623XXSP,2013-05-26 03:17:00,
2013-05-25 20:22:00,67.8,36.7,29.93,SSW,202,8.7,14.8,32,0.00,,,0.00,WUHU21623XXSP,2013-05-26 03:22:00,
2013-05-25 20:27:00,67.6,37.3,29.93,SSW,202,8.7,14.8,33,0.00,,,0.00,WUHU21623XXSP,2013-05-26 03:27:00,
2013-05-25 20:32:00,67.5,37.2,29.93,SSW,202,4.7,14.1,33,0.00,,,0.00,WUHU21623XXSP,2013-05-26 03:32:00,
2013-05-25 20:37:00,67.6,36.6,29.93,SSW,202,0.0,8.7,32,0.00,,,0.00,WUHU21623XXSP,2013-05-26 03:37:00,
2013-05-25 20:42:00,67.8,36.0,29.93,SSW,202,0.0,5.8,31,0.00,,,0.00,WUHU21623XXSP,2013-05-26 03:42:00,
2013-05-25 20:47:00,67.8,36.0,29.93,SSW,202,0.0,0.0,31,0.00,,,0.00,WUHU21623XXSP,2013-05-26 03:47:00,
2013-05-25 20:52:00,67.8,36.0,29.93,SSW,202,0.0,0.0,31,0.00,,,0.00,WUHU21623XXSP,2013-05-26 03:52:00,
2013-05-25 20:57:00,67.8,35.3,29.94,SSW,202,0.0,0.0,30,0.00,,,0.00,WUHU21623XXSP,2013-05-26 03:57:00,
2013-05-25 21:01:00,67.8,36.0,29.94,SSW,202,0.0,0.0,31,0.00,,,0.00,WUHU21623XXSP,2013-05-26 04:01:00,
2013-05-25 21:06:00,67.8,35.3,29.94,SSW,202,0.0,0.0,30,0.00,,,0.00,WUHU21623XXSP,2013-05-26 04:06:00,
2013-05-25 21:11:00,67.6,35.1,29.94,SSW,202,0.0,0.0,30,0.00,,,0.00,WUHU21623XXSP,2013-05-26 04:11:00,
2013-05-25 21:16:00,67.5,35.0,29.94,SSW,202,0.0,0.0,30,0.00,,,0.00,WUHU21623XXSP,2013-05-26 04:16:00,
2013-05-25 21:21:00,67.3,34.8,29.94,SSW,202,0.0,0.0,30,0.00,,,0.00,WUHU21623XXSP,2013-05-26 04:21:00,
2013-05-25 21:26:00,66.6,34.3,29.94,SSW,202,0.0,0.0,30,0.00,,,0.00,WUHU21623XXSP,2013-05-26 04:26:00,
2013-05-25 21:31:00,66.0,34.5,29.94,SSW,202,0.0,0.0,31,0.00,,,0.00,WUHU21623XXSP,2013-05-26 04:31:00,
2013-05-25 21:36:00,66.0,34.5,29.94,SSW,202,0.0,0.0,31,0.00,,,0.00,WUHU21623XXSP,2013-05-26 04:36:00,
2013-05-25 21:41:00,65.5,34.1,29.95,SSW,202,0.0,0.0,31,0.00,,,0.00,WUHU21623XXSP,2013-05-26 04:41:00,
2013-05-25 21:46:00,65.5,34.1,29.95,SSW,202,0.0,0.0,31,0.00,,,0.00,WUHU21623XXSP,2013-05-26 04:46:00,
2013-05-25 21:51:00,65.5,34.1,29.94,SSW,202,0.0,0.0,31,0.00,,,0.00,WUHU21623XXSP,2013-05-26 04:51:00,
2013-05-25 21:56:00,65.1,33.7,29.94,SSW,202,0.0,0.0,31,0.00,,,0.00,WUHU21623XXSP,2013-05-26 04:56:00,
2013-05-25 22:01:00,65.5,33.3,29.95,SSW,202,0.0,0.0,30,0.00,,,0.00,WUHU21623XXSP,2013-05-26 05:01:00,
2013-05-25 22:06:00,65.1,32.0,29.95,SSW,202,0.0,0.0,29,0.00,,,0.00,WUHU21623XXSP,2013-05-26 05:06:00,
2013-05-25 22:11:00,64.9,31.8,29.94,SSW,202,0.0,0.0,29,0.00,,,0.00,WUHU21623XXSP,2013-05-26 05:11:00,
2013-05-25 22:16:00,64.8,30.7,29.94,SSW,202,0.0,0.0,28,0.00,,,0.00,WUHU21623XXSP,2013-05-26 05:16:00,
2013-05-25 22:21:00,64.9,30.8,29.95,SSW,202,0.0,0.0,28,0.00,,,0.00,WUHU21623XXSP,2013-05-26 05:21:00,
2013-05-25 22:26:00,64.4,30.4,29.94,SSW,202,0.0,0.0,28,0.00,,,0.00,WUHU21623XXSP,2013-05-26 05:26:00,
2013-05-25 22:31:00,64.2,30.2,29.94,SSW,202,0.0,0.0,28,0.00,,,0.00,WUHU21623XXSP,2013-05-26 05:31:00,
2013-05-25 22:36:00,64.0,29.1,29.95,SSW,202,0.0,0.0,27,0.00,,,0.00,WUHU21623XXSP,2013-05-26 05:36:00,
2013-05-25 22:41:00,64.0,29.1,29.94,SSW,202,0.0,0.0,27,0.00,,,0.00,WUHU21623XXSP,2013-05-26 05:41:00,
2013-05-25 22:46:00,64.2,29.2,29.94,SSW,202,0.0,0.0,27,0.00,,,0.00,WUHU21623XXSP,2013-05-26 05:46:00,
2013-05-25 22:51:00,64.0,29.1,29.94,SSW,202,0.0,0.0,27,0.00,,,0.00,WUHU21623XXSP,2013-05-26 05:51:00,
2013-05-25 22:56:00,63.7,28.8,29.95,SSW,202,0.0,0.0,27,0.00,,,0.00,WUHU21623XXSP,2013-05-26 05:56:00,
2013-05-25 23:01:00,63.1,28.3,29.94,SSW,202,0.0,0.0,27,0.00,,,0.00,WUHU21623XXSP,2013-05-26 06:01:00,
2013-05-25 23:06:00,62.8,28.9,29.94,SSW,202,0.0,0.0,28,0.00,,,0.00,WUHU21623XXSP,2013-05-26 06:06:00,
2013-05-25 23:11:00,62.2,28.5,29.94,SSW,202,0.0,0.0,28,0.00,,,0.00,WUHU21623XXSP,2013-05-26 06:11:00,
2013-05-25 23:16:00,61.7,28.0,29.94,SSW,202,0.0,1.8,28,0.00,,,0.00,WUHU21623XXSP,2013-05-26 06:16:00,
2013-05-25 23:21:00,61.5,26.9,29.94,SSW,202,0.0,2.2,27,0.00,,,0.00,WUHU21623XXSP,2013-05-26 06:21:00,
2013-05-25 23:27:00,62.1,25.4,29.94,SSW,202,0.0,7.8,25,0.00,,,0.00,WUHU21623XXSP,2013-05-26 06:27:00,
2013-05-25 23:32:00,62.6,25.9,29.94,SSW,202,0.0,7.8,25,0.00,,,0.00,WUHU21623XXSP,2013-05-26 06:32:00,
2013-05-25 23:37:00,63.0,26.2,29.94,SSW,202,0.0,5.6,25,0.00,,,0.00,WUHU21623XXSP,2013-05-26 06:37:00,
2013-05-25 23:42:00,63.1,26.3,29.95,SSW,202,0.0,5.6,25,0.00,,,0.00,WUHU21623XXSP,2013-05-26 06:42:00,
2013-05-25 23:47:00,63.1,26.3,29.95,SSW,202,0.0,2.9,25,0.00,,,0.00,WUHU21623XXSP,2013-05-26 06:47:00,
2013-05-25 23:52:00,62.8,27.0,29.94,SSW,202,0.0,0.0,26,0.00,,,0.00,WUHU21623XXSP,2013-05-26 06:52:00,
2013-05-25 23:57:00,62.4,26.7,29.94,SSW,202,0.0,0.0,26,0.00,,,0.00,WUHU21623XXSP,2013-05-26 06:57:00,